• In Österreich
  • Länderverzeichnis
  • Für 7 Tage
  • Wassertemperatur
  • Satellitenkarten
  • Wetterkarte
  • News
  • Widgets
  • user-avatar
    Anmelden

    Stündliche Wetter Blizanowek

    Heute, 21 Oktober, Sonntag

    Zeit Temperatur Niederschläge Wind Luftdruck Luftfeuchtigkeit
    00:00 +8°C° 0.1 mm 3 m/S 759 mmHg 83%
    01:00 +8°C° 0.1 mm 2 m/S 759 mmHg 87%
    02:00 +7°C° 0 mm 2 m/S 759 mmHg 89%
    03:00 +7°C° 0 mm 2 m/S 759 mmHg 91%
    04:00 +6°C° 0 mm 2 m/S 759 mmHg 93%
    05:00 +7°C° 0 mm 1 m/S 759 mmHg 93%
    06:00 +7°C° 0 mm 1 m/S 759 mmHg 94%
    07:00 +7°C° 0 mm 1 m/S 760 mmHg 95%
    08:00 +8°C° 0 mm 1 m/S 760 mmHg 87%
    09:00 +10°C° 0 mm 1 m/S 760 mmHg 80%
    10:00 +11°C° 0 mm 1 m/S 761 mmHg 72%
    11:00 +12°C° 0 mm 1 m/S 760 mmHg 67%
    12:00 +13°C° 0 mm 1 m/S 760 mmHg 63%
    13:00 +13°C° 0 mm 0 m/S 760 mmHg 58%
    14:00 +13°C° 0 mm 1 m/S 760 mmHg 59%
    15:00 +13°C° 0 mm 1 m/S 760 mmHg 60%
    16:00 +13°C° 0 mm 1 m/S 760 mmHg 62%
    17:00 +12°C° 0 mm 1 m/S 760 mmHg 66%
    18:00 +10°C° 0 mm 0 m/S 760 mmHg 69%
    19:00 +9°C° 0 mm 0 m/S 760 mmHg 73%
    20:00 +10°C° 0 mm 1 m/S 760 mmHg 75%
    21:00 +9°C° 0 mm 1 m/S 760 mmHg 76%
    22:00 +9°C° 0 mm 1 m/S 760 mmHg 78%
    23:00 +8°C° 0 mm 1 m/S 760 mmHg 79%

    Morgen, 22 Oktober, Montag

    Zeit Temperatur Niederschläge Wind Luftdruck Luftfeuchtigkeit
    00:00 +8°C° 0 mm 1 m/S 760 mmHg 81%
    01:00 +8°C° 0 mm 1 m/S 760 mmHg 83%
    02:00 +7°C° 0 mm 2 m/S 760 mmHg 84%
    03:00 +6°C° 0 mm 2 m/S 759 mmHg 85%
    04:00 +6°C° 0 mm 2 m/S 759 mmHg 87%
    05:00 +6°C° 0 mm 2 m/S 759 mmHg 87%
    06:00 +6°C° 0 mm 2 m/S 759 mmHg 88%
    07:00 +5°C° 0 mm 2 m/S 759 mmHg 89%
    08:00 +7°C° 0 mm 2 m/S 759 mmHg 81%
    09:00 +9°C° 0 mm 3 m/S 759 mmHg 73%
    10:00 +11°C° 0 mm 3 m/S 759 mmHg 66%
    11:00 +11°C° 0 mm 3 m/S 758 mmHg 62%
    12:00 +12°C° 0 mm 4 m/S 758 mmHg 58%
    13:00 +13°C° 0 mm 4 m/S 757 mmHg 55%
    14:00 +12°C° 0 mm 4 m/S 757 mmHg 59%
    15:00 +12°C° 0 mm 4 m/S 757 mmHg 64%
    16:00 +11°C° 0 mm 4 m/S 757 mmHg 69%
    17:00 +11°C° 0.2 mm 4 m/S 757 mmHg 73%
    18:00 +9°C° 0.2 mm 5 m/S 757 mmHg 78%
    19:00 +9°C° 0.2 mm 5 m/S 758 mmHg 82%
    20:00 +8°C° 0.1 mm 5 m/S 758 mmHg 82%
    21:00 +7°C° 0.1 mm 5 m/S 758 mmHg 82%
    22:00 +6°C° 0.1 mm 4 m/S 758 mmHg 82%
    23:00 +6°C° 0 mm 4 m/S 759 mmHg 83%

    übermorgen, 23 Oktober, Dienstag

    Zeit Temperatur Niederschläge Wind Luftdruck Luftfeuchtigkeit
    00:00 +5°C° 0 mm 4 m/S 759 mmHg 83%
    01:00 +5°C° 0 mm 4 m/S 759 mmHg 84%
    02:00 +4°C° 0 mm 4 m/S 758 mmHg 85%
    03:00 +4°C° 0 mm 4 m/S 758 mmHg 86%
    04:00 +4°C° 0 mm 4 m/S 758 mmHg 87%
    05:00 +4°C° 0 mm 4 m/S 757 mmHg 86%
    06:00 +4°C° 0 mm 4 m/S 757 mmHg 85%
    07:00 +3°C° 0 mm 5 m/S 756 mmHg 85%
    08:00 +4°C° 0.1 mm 6 m/S 756 mmHg 80%
    09:00 +5°C° 0.1 mm 7 m/S 755 mmHg 75%
    10:00 +5°C° 0.1 mm 8 m/S 754 mmHg 71%
    11:00 +5°C° 0.4 mm 8 m/S 753 mmHg 71%
    12:00 +6°C° 0.4 mm 9 m/S 751 mmHg 71%
    13:00 +6°C° 0.4 mm 10 m/S 750 mmHg 71%
    14:00 +6°C° 1.4 mm 10 m/S 748 mmHg 75%
    15:00 +4°C° 1.4 mm 11 m/S 747 mmHg 78%
    16:00 +4°C° 1.4 mm 11 m/S 745 mmHg 81%
    17:00 +5°C° 0.8 mm 12 m/S 744 mmHg 81%
    18:00 +7°C° 0.8 mm 12 m/S 743 mmHg 81%
    19:00 +8°C° 0.8 mm 13 m/S 741 mmHg 81%
    20:00 +8°C° 1.4 mm 12 m/S 741 mmHg 79%
    21:00 +8°C° 1.4 mm 11 m/S 740 mmHg 78%
    22:00 +9°C° 1.4 mm 11 m/S 740 mmHg 76%
    23:00 +8°C° 0.1 mm 10 m/S 740 mmHg 75%

    24 Oktober, Mittwoch

    Zeit Temperatur Niederschläge Wind Luftdruck Luftfeuchtigkeit
    00:00 +7°C° 0.1 mm 10 m/S 740 mmHg 73%
    01:00 +6°C° 0.1 mm 10 m/S 740 mmHg 72%
    02:00 +6°C° 0.1 mm 10 m/S 741 mmHg 70%
    03:00 +5°C° 0.1 mm 10 m/S 741 mmHg 68%
    04:00 +5°C° 0.1 mm 10 m/S 742 mmHg 66%
    05:00 +3°C° 0.1 mm 9 m/S 742 mmHg 64%
    06:00 +4°C° 0.1 mm 8 m/S 743 mmHg 63%
    07:00 +2°C° 0.1 mm 8 m/S 744 mmHg 62%
    08:00 +3°C° 0 mm 9 m/S 744 mmHg 56%
    09:00 +5°C° 0 mm 9 m/S 745 mmHg 51%
    10:00 +6°C° 0 mm 10 m/S 745 mmHg 46%
    11:00 +6°C° 0 mm 10 m/S 745 mmHg 44%
    12:00 +7°C° 0 mm 11 m/S 745 mmHg 42%
    13:00 +7°C° 0 mm 11 m/S 745 mmHg 41%
    14:00 +7°C° 0 mm 10 m/S 746 mmHg 42%
    15:00 +6°C° 0 mm 9 m/S 746 mmHg 44%
    16:00 +6°C° 0 mm 8 m/S 747 mmHg 45%
    17:00 +5°C° 0 mm 7 m/S 747 mmHg 48%
    18:00 +4°C° 0 mm 7 m/S 747 mmHg 51%
    19:00 +4°C° 0 mm 6 m/S 748 mmHg 54%
    20:00 +3°C° 0 mm 6 m/S 748 mmHg 57%
    21:00 +3°C° 0 mm 6 m/S 748 mmHg 59%
    22:00 +3°C° 0 mm 6 m/S 748 mmHg 62%
    23:00 +3°C° 0 mm 6 m/S 748 mmHg 64%

    25 Oktober, Donnerstag

    Zeit Temperatur Niederschläge Wind Luftdruck Luftfeuchtigkeit
    00:00 +3°C° 0 mm 6 m/S 748 mmHg 67%
    01:00 +2°C° 0 mm 6 m/S 749 mmHg 69%
    02:00 +2°C° 0 mm 6 m/S 748 mmHg 72%
    03:00 +2°C° 0 mm 5 m/S 748 mmHg 75%
    04:00 +2°C° 0 mm 5 m/S 748 mmHg 78%
    05:00 +3°C° 0.3 mm 5 m/S 747 mmHg 82%
    06:00 +3°C° 0.3 mm 5 m/S 747 mmHg 86%
    07:00 +5°C° 0.3 mm 5 m/S 746 mmHg 90%
    08:00 +7°C° 0.7 mm 6 m/S 746 mmHg 90%
    09:00 +8°C° 0.7 mm 7 m/S 746 mmHg 89%
    10:00 +9°C° 0.7 mm 8 m/S 745 mmHg 89%
    11:00 +9°C° 0.3 mm 8 m/S 745 mmHg 86%
    12:00 +10°C° 0.3 mm 9 m/S 745 mmHg 84%
    13:00 +10°C° 0.3 mm 9 m/S 745 mmHg 82%
    14:00 +8°C° 0.1 mm 9 m/S 745 mmHg 82%
    15:00 +8°C° 0.1 mm 9 m/S 745 mmHg 82%
    16:00 +9°C° 0.1 mm 8 m/S 745 mmHg 82%
    17:00 +9°C° 0.2 mm 8 m/S 745 mmHg 83%
    18:00 +9°C° 0.2 mm 8 m/S 746 mmHg 84%
    19:00 +9°C° 0.2 mm 7 m/S 746 mmHg 84%
    20:00 +9°C° 0.2 mm 7 m/S 746 mmHg 85%
    21:00 +9°C° 0.2 mm 7 m/S 746 mmHg 86%
    22:00 +9°C° 0.2 mm 7 m/S 746 mmHg 87%
    23:00 +9°C° 0.1 mm 7 m/S 746 mmHg 86%

    26 Oktober, Freitag

    Zeit Temperatur Niederschläge Wind Luftdruck Luftfeuchtigkeit
    00:00 +9°C° 0.1 mm 7 m/S 746 mmHg 86%
    01:00 +9°C° 0.1 mm 7 m/S 746 mmHg 86%
    02:00 +9°C° 0.1 mm 7 m/S 746 mmHg 86%
    03:00 +9°C° 0.1 mm 7 m/S 746 mmHg 86%
    04:00 +9°C° 0.1 mm 6 m/S 746 mmHg 86%
    05:00 +9°C° 0 mm 6 m/S 746 mmHg 86%
    06:00 +8°C° 0 mm 6 m/S 745 mmHg 87%
    07:00 +8°C° 0 mm 5 m/S 745 mmHg 87%
    08:00 +8°C° 0 mm 6 m/S 745 mmHg 83%
    09:00 +9°C° 0 mm 6 m/S 745 mmHg 79%
    10:00 +9°C° 0 mm 6 m/S 745 mmHg 75%
    11:00 +9°C° 0 mm 6 m/S 745 mmHg 73%
    12:00 +9°C° 0 mm 6 m/S 744 mmHg 71%
    13:00 +9°C° 0 mm 6 m/S 744 mmHg 69%
    14:00 +9°C° 0 mm 5 m/S 744 mmHg 70%
    15:00 +9°C° 0 mm 5 m/S 743 mmHg 71%
    16:00 +10°C° 0 mm 4 m/S 743 mmHg 72%
    17:00 +9°C° 0 mm 3 m/S 743 mmHg 74%
    18:00 +9°C° 0 mm 3 m/S 743 mmHg 76%
    19:00 +9°C° 0 mm 3 m/S 742 mmHg 78%
    20:00 +8°C° 0 mm 3 m/S 742 mmHg 80%
    21:00 +8°C° 0 mm 3 m/S 742 mmHg 82%
    22:00 +8°C° 0 mm 3 m/S 742 mmHg 84%
    23:00 +8°C° 0 mm 3 m/S 741 mmHg 86%
    Mehr zeigen